Regional Weather Roundup
Issued by NWS

Home | Current Version | Previous Version | Graphics & Text | Print | Product List | Glossary On
Versions: 1 2 3 4 5 6 7 8 9 10 11 12 13 14 15 16 17 18 19 20 21 22 23 24 25 26 27 28 29 30 31 32 33 34 35 36 37 38 39 40 41 42 43 44 45 46 47 48 49 50
000
ASUS43 KLSX 251307
RWRMO

WEATHER SUMMARY FOR MISSOURI
NATIONAL WEATHER SERVICE SPRINGFIELD MO
700 AM CST SUN FEB 25 2018

NOTE: "FAIR" INDICATES FEW OR NO CLOUDS BELOW 12,000 FEET WITH NO
       SIGNIFICANT WEATHER AND/OR OBSTRUCTIONS TO VISIBILITY.
       CURRENT SKY AND/OR WEATHER CONDITIONS ARE NOT AVAILABLE FOR
       CHILLICOTHE AND FARMINGTON.

MOZ001>031-035>038-043-044-053-054-251400-
...NORTHERN AND WESTERN MISSOURI...

CITY           SKY/WX    TMP DP  RH WIND       PRES   REMARKS
KANSAS CTY INT CLEAR     24  19  81 SW8       29.98S WCI  15
KANSAS C DTWN  CLEAR     25  20  81 SW6       30.00S WCI  18
LEE`S SUMMIT   CLEAR     27  24  89 SW6       29.99S WCI  20
ST JOSEPH      CLEAR     22  19  89 CALM      29.99S
CHILLICOTHE      N/A     26  20  77 CALM      29.99R
KIRKSVILLE     CLEAR     27  22  81 W8        29.95R WCI  19

$$
MOZ066>068-077>081-088>096-101>105-251400-
...SOUTHWEST MISSOURI...

CITY           SKY/WX    TMP DP  RH WIND       PRES   REMARKS
SPRINGFIELD    CLEAR     29  26  89 SW3       30.04R
JOPLIN         CLEAR     29  28  96 CALM      30.05R
BRANSON        PTCLDY    32  30  93 CALM      30.06S

$$
MOZ032>034-039>042-045>050-055>058-069>072-251400-
...CENTRAL MISSOURI...

CITY           SKY/WX    TMP DP  RH WIND       PRES   REMARKS
COLUMBIA       CLEAR     30  25  81 W6        30.00R WCI  24
JEFFERSON CITY CLEAR     32  28  85 SW5       30.03R WCI  27
ROLLA          CLEAR     28  28 100 SW8       30.02R WCI  20
SEDALIA        CLEAR     30  27  88 W6        30.01R WCI  24
WHITEMAN AFB   CLEAR    N/A N/A N/A CALM      29.97R
WARRENSBURG    CLEAR     28  25  86 SW6       30.01R WCI  22
OSAGE BEACH    CLEAR     27  26  96 CALM      30.04R FOG

$$
MOZ051-052-059>065-251400-
...EAST CENTRAL MISSOURI...

CITY           SKY/WX    TMP DP  RH WIND       PRES   REMARKS
ST LOUIS INTL  PTCLDY    34  30  85 W6        30.01R WCI  29
SPIRIT OF STL  CLEAR     35  30  82 SW8       30.01R WCI  29
ST CHARLES       N/A     34  29  82 CALM      30.01R

$$
MOZ072>076-082>087-097>100-106>115-251400-
...SOUTH CENTRAL AND SOUTHEAST MISSOURI...

CITY           SKY/WX    TMP DP  RH WIND       PRES   REMARKS
CAPE GIRARDEAU FAIR      41  35  79 W8        30.09R
FARMINGTON     FAIR      33  29  85 CALM      30.06
POPLAR BLUFF   FAIR      39  33  79 W3        30.10R
WEST PLAINS    CLEAR     30  29  96 SW6       30.06R WCI  24

$$


USA.gov is the U.S. government's official web portal to all federal, state and local government web resources and services.